User: anonymous   Login
Location: Unspecified
(0.0000°N, 0.0000°E)
Time: 22:49:07
(UTC+00:00)
Language:

RS-3 - Orbit

View from above orbital plane
View from above orbital plane
View from above satellite
View from above satellite

Ground track
Ground track

The orbit data is extracted from the following two-line orbital elements,

1 12997U 81120A   22228.71271578  .00000008  00000-0 -99434-5 0  9997
2 12997  82.9629 321.2637 0057215 319.3499 194.5044 12.15833233804503
Epoch (UTC): 16 August 2022 17:06:18
Eccentricity: 0.0057215
inclination: 82.9629°
perigee height: 1565 km
apogee height: 1656 km
right ascension of ascending node: 321.2637°
argument of perigee: 319.3499°
revolutions per day: 12.15833233
mean anomaly at epoch: 194.5044°
orbit number at epoch: 80450

The dashed part of the orbit path shows where the satellite is in the earth's shadow,  

DLR